RH
31 34 33 28 25 20 19 22 22 23 25 25 24 21 17 15 14 8 7 5 4 6 10 13 26 19 14 15 13 16 16 10 8 9 10 10 10 10 10 12 14 15 14
31 31 37 38 35 28 27 20 19 20 22 24 25 23 20 15 14 13 12 9 8 8 7 7 6 7 9 9 9 9 10 12 13 15 16 16 16 17 16 15 15 15 15
30 32 36 39 39 38 35 31 23 18 19 21 23 24 22 19 16 15 16 17 17 16 15 13 12 11 12 13 15 17 18 18 17 17 17 17 17 16 16 16 16 18 19
35 34 37 38 39 39 38 38 37 28 20 17 18 21 24 23 21 20 19 18 17 17 17 17 17 17 18 18 19 19 20 21 21 21 20 19 18 18 18 17 17 21 19
38 35 36 39 39 39 38 38 39 38 31 23 18 18 22 26 26 25 24 23 23 23 23 24 25 26 28 31 33 34 34 34 34 34 34 35 34 31 27 23 20 22 20
38 38 36 40 39 39 39 39 39 40 40 36 28 25 22 23 26 28 28 30 30 30 31 32 33 33 33 33 33 33 32 32 33 33 31 30 28 30 34 35 32 26 22
38 38 37 38 39 39 39 39 40 40 41 42 42 34 30 30 28 27 27 26 26 27 27 27 28 30 32 31 31 30 28 28 29 29 30 30 31 30 28 28 33 35 30
37 37 36 36 38 39 40 40 40 41 42 43 44 43 41 37 39 42 43 41 38 34 30 28 28 30 30 31 32 33 32 31 31 31 33 38 41 42 37 30 28 27 33
34 35 35 35 36 38 39 40 41 42 42 43 44 45 44 44 44 45 44 45 46 47 47 48 48 48 47 45 41 40 44 47 48 48 43 38 41 45 48 46 34 30 27
32 33 34 35 36 38 39 40 41 42 42 43 44 44 45 46 46 46 46 46 47 47 47 48 49 49 49 49 49 49 49 50 50 51 51 50 48 44 40 45 49 37 32
41 36 32 34 34 37 38 39 40 41 42 43 44 44 44 45 45 46 46 46 47 47 47 48 49 49 50 50 51 51 51 51 51 52 52 52 52 51 50 47 40 45 41
40 38 36 33 33 35 37 38 39 40 40 41 42 43 44 45 45 45 45 46 46 47 48 48 49 49 50 50 51 51 51 52 52 52 52 52 52 52 53 52 51 44 44
40 42 39 36 34 33 35 37 37 36 36 37 38 39 41 43 44 45 46 46 47 48 48 49 50 50 50 51 51 51 51 51 51 52 51 52 52 53 53 54 54 53 50
42 41 42 44 44 37 34 34 34 36 38 40 41 40 40 40 42 44 45 46 48 48 49 50 51 51 53 56 57 58 57 56 54 53 52 52 52 53 53 54 55 56 55
53 51 49 46 44 43 42 42 42 42 40 39 38 38 41 44 46 46 46 46 48 50 50 52 55 57 60 60 61 60 59 59 60 60 58 56 54 54 54 55 55 56 57
48 40 37 34 32 32 31 31 29 27 27 26 26 26 27 29 32 38 44 49 51 52 53 57 61 60 57 50 44 39 37 36 38 48 59 65 66 66 65 61 59 58 59
53 40 37 35 33 32 32 31 31 33 34 35 35 34 33 31 27 29 34 43 50 52 54 54 53 50 43 38 37 37 37 38 38 38 40 50 62 68 70 72 73 72 70
57 47 41 37 36 35 34 34 34 34 35 37 38 39 40 40 39 32 29 35 44 51 50 49 47 43 40 40 43 45 44 46 48 49 47 47 49 53 58 67 75 78 76
47 46 43 41 40 38 36 37 38 37 37 40 40 41 42 44 45 40 34 34 37 43 49 48 44 42 42 43 49 55 59 59 59 57 55 53 54 55 56 58 64 67 72
39 39 37 36 33 28 26 25 27 29 32 36 40 41 43 43 44 37 27 27 36 40 40 43 47 50 53 58 64 64 48 45 50 39 37 40 51 55 60 67 69 72 76
43 39 36 36 36 33 30 28 28 28 26 25 25 26 29 30 30 27 23 22 23 29 39 53 60 61 47 48 53 50 28 24 22 28 34 37 43 53 67 68 69 72 75
49 47 45 43 40 38 35 31 28 29 29 28 28 27 26 25 26 28 25 23 20 19 16 24 31 29 33 23 20 19 19 21 27 42 47 44 43 47 54 58 66 74 76
53 52 50 43 40 37 32 30 30 29 29 27 22 20 19 20 21 22 21 19 17 14 14 16 18 20 28 24 25 25 22 19 20 29 32 25 28 39 56 63 63 63 63
44 40 48 45 38 35 35 35 35 33 26 20 17 16 17 17 18 18 17 15 14 15 16 17 19 25 22 20 19 17 18 18 26 34 30 53 62 50 40 44 43 52 49
39 40 39 38 38 38 38 36 30 24 20 16 14 14 13 13 13 13 14 14 16 17 18 19 19 19 18 17 16 18 21 25 28 31 44 57 46 41 40 47 42 33 32
39 40 40 40 40 39 36 34 30 26 21 16 13 12 12 13 13 14 16 17 17 18 18 18 18 17 17 20 25 33 40 44 44 53 54 41 40 34 27 32 32 35 42
Wind_Speed
12 14 18 20 20 21 18 16 15 14 14 14 14 15 15 14 15 15 15 16 13 9 6 3 1 3 5 6 5 4 7 9 9 10 11 11 11 11 10 9 8 8 7
10 13 16 18 20 22 23 22 17 16 15 14 14 15 16 16 16 16 16 17 17 15 12 10 7 7 7 8 8 9 10 10 11 12 12 12 11 11 10 9 9 9 8
11 11 14 16 17 19 21 23 23 19 16 15 16 16 16 16 17 17 16 16 17 16 16 15 14 13 13 13 13 12 12 13 14 14 15 15 14 12 11 11 11 10 10
12 10 13 13 14 15 17 19 21 21 21 18 16 15 15 16 16 17 18 19 19 19 18 17 16 16 16 16 16 16 16 16 16 17 17 16 15 13 13 13 12 11 12
14 10 12 11 11 11 12 14 17 19 22 22 18 16 15 16 16 17 18 18 19 18 18 18 18 18 18 18 18 17 17 16 17 17 16 15 15 15 15 15 15 15 13
16 13 11 10 9 9 8 10 13 15 18 20 20 18 16 16 15 16 16 16 16 15 15 15 16 16 16 15 15 14 14 14 15 15 14 14 14 14 14 13 13 13 13
18 17 14 11 10 8 6 6 8 10 13 15 16 18 19 19 18 17 17 16 15 14 14 14 15 14 14 13 14 13 14 14 14 14 14 14 14 15 14 12 12 12 12
21 19 16 14 12 10 7 5 5 6 8 9 11 13 15 17 18 18 19 18 17 16 16 16 15 15 15 15 14 15 15 16 15 14 14 15 15 16 16 15 13 11 11
23 21 18 16 14 13 11 9 6 5 5 4 5 7 9 11 12 13 13 12 12 13 14 14 14 15 15 15 15 15 16 16 16 16 16 15 15 16 16 16 15 13 10
23 23 21 18 16 15 14 12 10 8 6 5 2 1 3 4 5 7 7 8 8 8 8 7 7 8 8 7 8 8 9 9 9 11 12 12 14 14 15 15 16 15 12
24 24 24 22 19 18 16 14 13 11 9 7 6 5 3 3 3 2 1 1 2 2 3 4 5 5 6 7 7 7 8 9 10 10 10 11 11 11 13 14 14 15 15
23 23 24 23 21 20 19 18 16 14 12 11 10 9 8 8 7 7 7 7 7 7 8 9 9 9 9 9 10 10 12 13 14 14 14 14 14 13 13 13 13 14 14
21 21 22 22 22 21 20 19 17 15 14 13 13 12 12 12 11 12 12 11 11 11 12 12 13 13 13 13 13 14 15 16 17 17 16 16 17 17 16 16 16 15 15
19 23 23 21 20 20 20 19 17 15 15 14 13 12 12 13 14 14 14 13 14 14 14 15 15 15 16 16 16 16 17 18 19 20 20 20 19 19 19 19 18 18 17
18 18 18 18 17 17 17 17 16 15 15 14 13 13 13 14 15 15 15 15 15 16 16 16 17 17 18 18 19 19 20 20 21 22 23 23 22 22 22 22 21 20 19
19 18 17 17 17 17 16 16 16 14 13 13 12 13 14 14 16 16 16 16 17 18 19 18 18 19 20 20 21 22 23 23 23 23 24 24 23 23 23 23 23 22 21
19 19 18 17 16 16 16 15 15 15 14 15 15 15 14 15 16 17 17 17 19 20 20 21 21 21 22 23 24 25 26 26 24 24 25 25 24 24 24 24 24 24 23
23 19 19 17 16 16 17 18 18 18 18 18 18 19 18 18 19 18 19 19 21 22 23 24 25 25 26 27 28 28 28 28 28 28 27 26 25 25 26 26 26 26 26
21 21 20 20 19 20 21 21 22 22 22 22 22 22 21 22 21 21 22 22 24 25 25 27 28 30 30 31 31 30 30 32 32 32 30 30 29 28 28 28 28 28 28
20 20 20 21 22 22 23 22 23 24 24 24 24 25 26 26 26 25 25 25 27 28 29 31 32 32 33 33 34 35 35 35 36 36 35 34 32 31 30 30 31 31 31
21 21 22 23 23 23 23 24 24 23 24 25 26 27 28 29 29 28 28 28 30 30 31 32 34 36 37 37 40 39 40 39 37 34 34 33 32 31 32 33 33 33 33
21 21 23 25 26 27 27 27 27 26 27 28 29 29 30 31 31 32 31 31 32 33 33 34 36 39 40 39 42 42 42 38 33 31 31 31 30 31 32 34 34 33 35
23 24 26 27 27 27 27 27 29 29 29 30 30 30 30 31 32 33 33 33 34 35 35 35 36 37 38 38 37 38 40 39 36 33 31 30 28 26 26 27 29 32 34
26 28 30 31 31 30 30 30 30 30 30 30 31 31 32 33 34 34 34 35 35 36 36 35 35 35 37 35 35 33 35 36 37 39 37 32 27 28 29 31 31 31 32
27 26 27 28 29 30 30 30 30 31 32 32 33 33 34 34 34 34 34 34 35 34 33 32 32 32 33 35 35 36 35 36 36 38 40 38 36 33 30 31 31 29 30
27 27 28 28 29 30 31 33 33 34 34 34 34 34 34 33 33 33 33 33 33 33 33 33 34 35 36 36 37 37 35 36 36 35 37 38 36 34 29 28 29 27 26
Wind_Direction
117 107 95 87 81 77 76 73 69 66 64 64 62 61 62 65 74 73 74 80 87 95 110 114 202 317 330 332 349 360 14 24 31 34 34 31 27 24 21 18 19 19 18
116 113 102 93 83 78 73 71 71 69 70 71 70 68 68 72 76 76 77 81 85 85 84 80 79 75 71 73 68 60 55 50 46 44 43 40 36 33 31 31 30 31 28
128 111 116 103 91 81 75 71 69 71 72 73 73 72 71 72 74 77 81 83 84 84 84 85 87 87 83 78 72 67 61 57 55 54 51 47 46 42 39 36 31 30 31
139 116 125 114 102 90 79 72 66 64 65 67 71 74 77 77 80 80 81 81 81 83 84 85 85 83 80 77 73 69 65 63 61 58 55 51 48 42 38 34 29 32 40
158 135 132 130 118 103 87 75 68 60 62 64 68 73 80 83 82 82 81 81 81 81 82 81 80 79 77 74 71 68 64 62 58 54 52 49 49 45 40 33 28 22 27
169 163 142 146 140 125 102 82 75 65 57 57 63 70 75 79 81 81 80 79 78 78 77 77 75 72 70 68 66 61 56 52 51 48 46 41 37 36 32 29 25 20 15
177 176 165 165 168 158 137 102 88 78 68 63 53 60 70 73 74 75 74 73 72 71 71 70 69 67 64 59 54 49 46 44 43 40 37 33 32 28 24 16 13 10 8
189 185 181 176 188 186 179 157 123 103 88 73 81 65 60 67 71 70 69 68 67 66 64 64 63 61 59 57 53 49 46 43 40 37 34 32 29 26 23 17 10 1 355
196 195 193 188 196 203 198 193 187 156 131 105 85 81 74 64 63 63 64 66 63 61 60 60 59 56 56 53 50 46 41 38 34 31 29 25 21 17 16 16 12 7 357
203 204 202 199 202 210 211 206 207 200 188 191 179 90 101 74 55 47 49 46 43 39 37 37 40 38 42 44 41 39 31 21 14 12 11 11 14 12 6 5 5 2 356
205 207 208 207 208 212 214 215 216 219 219 227 232 236 241 243 255 244 275 311 314 320 321 322 329 332 334 333 333 336 333 334 335 335 336 340 346 350 352 355 353 352 353
204 206 209 212 214 215 216 220 223 226 231 238 246 251 255 258 260 260 261 264 269 277 285 291 295 300 301 303 306 311 311 312 309 313 315 316 319 323 323 327 335 340 340
208 202 203 209 216 218 219 223 228 232 236 240 245 252 257 260 262 262 263 265 270 276 281 284 287 290 293 297 299 301 302 300 298 298 301 300 307 307 309 311 314 320 326
203 208 209 210 211 214 218 222 226 230 234 239 245 251 256 260 261 262 263 266 270 272 275 278 281 285 289 293 294 294 293 292 292 293 291 291 294 295 300 302 303 305 309
194 187 185 185 187 197 203 209 217 225 236 244 249 252 256 259 262 264 266 267 269 270 272 276 281 284 287 290 291 291 289 289 289 289 289 288 289 291 294 296 296 297 298
196 190 188 189 193 199 207 214 220 228 239 246 253 260 264 265 264 265 266 267 268 269 272 276 280 283 283 286 289 290 290 289 289 288 286 286 288 290 291 292 292 291 290
202 196 197 201 203 208 216 227 233 241 250 254 259 264 269 273 273 270 268 268 267 269 271 273 275 278 282 286 287 289 289 291 292 289 285 285 286 286 286 289 289 289 287
207 209 210 211 215 223 232 236 239 245 254 258 262 266 270 275 277 276 273 270 270 271 273 274 276 280 282 284 286 286 289 290 291 289 288 287 285 283 284 284 286 288 288
211 214 216 223 232 238 243 246 248 252 256 262 268 270 270 272 274 275 274 272 273 273 273 275 277 280 282 284 285 285 285 287 287 288 288 287 286 284 283 283 282 282 282
220 227 231 237 243 248 250 251 252 255 259 261 263 264 266 269 270 273 273 270 269 270 272 274 276 278 282 283 282 281 284 284 284 286 285 284 285 282 279 277 276 276 276
221 230 237 243 247 251 255 257 258 260 260 262 264 265 265 267 269 271 271 271 272 271 270 270 272 275 278 281 283 285 286 287 288 288 285 284 282 282 281 279 277 276 276
229 241 251 254 257 260 263 264 263 263 264 265 267 267 267 267 267 269 271 271 272 273 272 272 273 276 278 282 285 290 292 289 288 285 282 284 282 280 280 279 277 275 275
241 251 258 261 262 264 266 267 269 270 271 272 272 271 270 270 270 270 271 271 272 274 275 276 278 280 283 284 286 288 293 296 297 290 289 290 288 289 287 285 284 282 280
248 254 254 260 263 265 265 266 269 271 273 274 276 276 276 274 273 272 272 273 274 276 279 280 280 281 282 285 286 289 289 291 294 296 298 296 295 293 291 290 288 284 281
251 253 252 255 256 257 259 262 266 269 272 274 275 276 277 277 276 275 275 277 279 281 282 282 282 283 284 287 288 287 286 288 290 293 295 298 299 299 300 299 294 288 283
250 253 253 254 256 259 262 265 269 271 272 273 274 275 275 274 274 275 277 279 280 281 281 282 282 283 283 284 285 285 286 287 287 287 290 294 296 298 300 295 294 293 288